Regional Weather Roundup
Issued by NWS

Home | Current Version | Previous Version | Graphics & Text | Print | Product List | Glossary On
Versions: 1 2 3 4 5 6 7 8 9 10 11 12 13 14 15 16 17 18 19 20 21 22 23 24 25 26 27 28 29 30 31 32 33 34 35 36 37 38 39 40 41 42 43 44 45 46 47 48 49 50
000
ASUS45 KABQ 191410
RWRNM
WEATHER ROUNDUP FOR NEW MEXICO
NATIONAL WEATHER SERVICE ALBUQUERQUE NM
800 AM MDT FRI SEP 19 2014

NOTE: "FAIR" MEANS FEW OR NO CLOUDS BELOW 12,000 FEET AGL WITH NO
       SIGNIFICANT WEATHER OR OBSTRUCTIONS TO VISION.

      THIS PRODUCT IS RELEASED AS TWO VERSIONS.  ONE VERSION NEAR
      THE TOP OF THE HOUR CONTAINING PRELIMINARY DATA FROM ALBUQUERQUE
      AND OTHER STATIONS.  A FINAL VERSION WITH ADDITIONAL DATA IS
      ISSUED ABOUT 10 MINUTES AFTER THE HOUR.

NMZ501-503-504-510>518-191500-
NORTHWEST PLATEAU/NORTHCENTRAL MOUNTAINS

CITY           SKY/WX    TMP DP  RH WIND       PRES   REMARKS
FARMINGTON     SUNNY     60  45  57 E10       30.09R
LOS ALAMOS     MOSUNNY   57  49  75 CALM      30.22R
SANTA FE       MOSUNNY   61  52  72 N3        30.16R
TAOS           MOSUNNY   54  43  66 E3        30.23R
ANGEL FIRE     FOG       45  43  94 N3        30.30R VSB 1/2

$$
NMZ402-403-502-505>509-191500-
WESTCENTRAL MOUNTAINS/SOUTHWEST MOUNTAINS

CITY           SKY/WX    TMP DP  RH WIND       PRES   REMARKS
GALLUP         SUNNY     50  43  77 CALM      30.16R
GRANTS         SUNNY     48  43  81 NW5       30.18S
SILVER CITY    PTSUNNY   63  63 100 NW3       30.10R

$$
NMZ407-409-411-412-191500-
SOUTHERN DESERTS

CITY           SKY/WX    TMP DP  RH WIND       PRES   REMARKS
LORDSBURG      CLOUDY    63  63 100 MISG      30.03R
DEMING         CLOUDY    62  62 100 SW3       30.03R FOG
LAS CRUCES     CLOUDY    65  64  96 NW5       30.04R
HOLLOMAN AFB   PTSUNNY   65  60  84 NW1       30.00R
ALAMOGORDO     CLOUDY    64  64 100 W3        30.02R
T OR C         SUNNY     62  57  83 NW7       30.04R

$$
NMZ519>523-191500-
CENTRAL VALLEYS/CENTRAL HIGHLANDS

CITY           SKY/WX    TMP DP  RH WIND       PRES   REMARKS
ALBUQUERQUE    PTSUNNY   65  56  72 NE3       30.10R
DOUBLE EAGLE   PTSUNNY   61  55  82 VRB5      30.13R
MORIARTY ARPT  CLOUDY    60  56  86 CALM      30.17R
CLINES CORNERS CLOUDY    58  55  90 E6        30.18R
BELEN          CLOUDY    63  60  89 NW6       30.09R
SOCORRO        CLOUDY    65  61  88 NW7       30.06R

$$
NMZ524>526-539-540-191500-
SOUTHCENTRAL MOUNTAINS

CITY           SKY/WX    TMP DP  RH WIND       PRES   REMARKS
RUIDOSO        CLOUDY    57  57 100 W5        30.17R FOG

$$
NMZ527>531-191500-
NORTHEAST HIGHLANDS/NORTHEAST PLAINS

CITY           SKY/WX    TMP DP  RH WIND       PRES   REMARKS
LAS VEGAS      FOG       56  55  97 SE3       30.19R VSB<1/4
RATON          CLOUDY    59  56  89 S8        30.14R
CLAYTON        MOSUNNY   65  59  81 S10       30.08S

$$
NMZ532>537-191500-
EASTCENTRAL PLAINS

CITY           SKY/WX    TMP DP  RH WIND       PRES   REMARKS
TUCUMCARI      CLOUDY    67  61  81 CALM      30.05R
CANNON AFB     PTSUNNY   64  63  94 E6        30.08R FOG
CLOVIS AIRPORT   N/A     64  63  94 E5        30.10R

$$
NMZ028-029-538-191500-
SOUTHEAST PLAINS

CITY           SKY/WX    TMP DP  RH WIND       PRES   REMARKS
ROSWELL        CLOUDY    68  66  93 E7        29.99R
CARLSBAD       HVY RAIN  68  32  26 S10       29.96R VSB 3/4
HOBBS          LGT RAIN  66  66 100 E8        30.02R


$$



USA.gov is the U.S. government's official web portal to all federal, state and local government web resources and services.